Theta_e
344 344 345 344 345 345 343 341 343 342 342 340 338 338 337 337 337 336 336 335 334 333 331 332 334 335 333 332 335 334 335 337 339 339 340 340 341 340 338 341 341 341 339 338 337 336 335 334 333 332 331 330 329 328 328 328 327 328 329 327 331 332 334 335 333 332 332 331 331 330 329 327 327 326 325 325 325 324 324 324 324 323 323 322 322
344 344 342 342 341 343 343 342 339 342 341 339 340 338 337 336 336 336 331 333 331 333 332 332 331 333 332 332 333 335 336 335 338 337 339 340 341 340 337 339 339 340 341 339 337 337 336 335 334 333 331 330 330 329 327 328 328 328 328 327 330 331 332 334 334 333 332 329 327 327 327 327 326 326 326 325 325 324 324 324 324 323 322 322 321
337 338 337 331 332 334 338 340 338 339 339 339 340 339 339 337 336 333 332 332 331 333 332 331 332 330 332 331 333 335 335 337 336 336 336 338 339 341 339 338 340 337 338 338 340 337 336 336 336 334 332 331 331 330 329 328 329 327 328 330 328 330 332 334 334 332 332 330 330 328 327 327 326 324 324 324 324 324 324 323 323 323 322 322 321
334 333 331 332 333 333 334 334 336 337 338 339 339 339 338 338 337 337 335 334 333 334 335 332 332 331 332 332 334 335 335 336 336 336 336 338 338 341 340 339 340 338 338 338 338 340 337 336 336 335 333 332 332 331 330 328 329 327 328 330 329 330 331 333 334 333 331 331 330 329 327 327 326 325 324 323 322 322 323 323 323 322 322 321 321
336 335 332 333 333 333 334 334 336 334 336 338 338 339 339 338 337 337 336 335 335 335 334 335 334 334 335 333 335 334 335 335 337 337 336 337 337 339 340 340 341 339 335 338 337 337 340 338 336 335 334 333 333 332 330 330 329 328 328 329 330 329 331 332 334 333 331 330 330 329 328 327 325 324 324 324 323 322 322 322 322 322 321 321 321
335 335 335 333 333 333 333 333 334 335 335 336 337 340 339 337 335 335 335 335 334 335 334 335 335 335 336 336 336 337 337 335 336 337 338 338 337 339 338 338 339 341 342 339 338 336 336 339 338 337 335 334 333 333 332 331 330 329 329 329 331 329 330 332 333 334 332 331 330 330 328 326 326 325 323 323 322 322 322 321 321 321 321 320 320
335 335 337 338 336 335 334 334 335 335 335 336 337 338 339 338 337 334 336 336 336 334 335 334 335 335 335 337 335 335 338 337 338 338 336 339 339 338 339 338 338 339 341 341 340 337 335 337 339 339 337 335 335 334 333 332 331 331 329 328 330 329 330 332 333 334 332 331 330 330 329 327 326 324 324 323 322 322 321 320 320 320 320 320 319
336 336 336 336 334 334 333 334 335 333 334 333 335 335 337 337 338 337 335 333 333 334 335 335 335 335 335 336 336 337 336 336 337 336 336 337 336 338 339 338 339 338 340 339 341 340 336 335 336 338 339 337 336 335 335 333 333 331 331 330 330 330 330 331 333 334 333 332 331 329 329 328 326 325 324 323 322 321 321 321 320 320 319 319 319
335 337 335 334 334 333 334 334 335 335 334 332 333 336 336 335 335 336 336 335 331 331 333 333 334 333 334 335 335 334 334 336 337 338 334 336 336 336 338 338 338 337 340 339 341 340 337 335 336 335 336 337 338 336 336 335 334 333 332 331 331 331 331 330 332 333 334 333 331 330 329 327 326 325 324 323 323 322 321 320 320 319 319 319 319
335 335 335 335 336 336 336 335 334 334 334 334 333 334 334 334 333 335 335 335 333 331 331 332 331 331 333 334 336 334 332 335 337 337 335 335 337 336 337 338 338 338 338 340 339 340 339 336 335 334 335 334 336 337 337 336 335 335 334 333 332 332 331 331 330 332 334 334 332 330 329 327 326 325 324 324 323 322 321 321 320 320 319 318 318
334 334 333 333 334 335 334 333 333 335 334 333 333 333 333 333 333 334 335 336 335 334 333 332 331 331 331 333 333 333 333 333 334 336 336 336 335 336 335 337 338 337 339 340 339 340 340 339 337 337 337 334 335 337 338 337 336 335 334 334 333 332 332 332 331 330 332 335 334 331 329 328 326 325 324 324 323 322 322 321 320 320 319 318 318
333 333 332 332 332 332 332 332 333 333 333 332 333 332 332 331 331 331 331 333 333 335 333 330 329 329 330 332 333 332 330 330 331 333 336 338 338 337 336 335 337 338 337 338 339 339 340 340 339 336 337 336 334 335 336 336 336 337 336 335 334 333 333 333 332 330 330 334 334 332 329 329 327 326 325 324 323 322 322 321 321 320 319 318 318
330 331 333 332 331 331 332 332 333 332 332 331 332 332 333 332 330 330 329 329 332 332 331 330 327 326 329 330 332 333 332 330 329 330 332 335 337 337 336 337 336 337 338 338 338 339 339 339 339 338 338 337 337 333 333 333 334 336 337 337 335 334 334 333 333 332 331 332 335 333 330 329 327 326 325 324 324 323 322 321 320 320 319 318 318
331 332 332 333 331 330 330 330 331 331 331 331 330 330 330 330 330 328 330 329 330 331 330 329 323 322 320 323 327 331 332 331 330 329 330 332 335 336 337 336 335 336 338 338 338 337 337 338 339 338 338 338 338 339 338 337 336 335 338 337 337 336 335 334 333 333 332 331 334 334 331 330 328 327 325 325 324 324 323 321 320 320 319 318 318
331 332 333 332 331 330 330 331 331 330 329 328 329 329 331 330 330 328 327 329 330 330 330 330 324 324 324 322 319 319 327 329 331 330 331 332 334 333 333 333 332 334 336 337 336 337 336 337 337 338 338 338 337 338 339 336 337 334 335 337 337 337 336 336 335 334 333 332 335 335 332 331 329 327 326 325 325 324 323 321 321 320 319 318 318
327 328 328 329 329 328 328 328 328 329 327 325 326 326 328 329 329 329 328 324 326 326 330 330 329 325 318 320 320 321 315 320 325 329 329 328 330 331 332 332 333 333 335 334 334 336 337 337 336 337 338 338 338 338 338 338 335 332 330 334 334 335 337 337 337 336 334 334 335 336 333 331 330 328 327 326 325 324 323 322 321 320 319 319 318
327 327 326 327 328 328 327 327 326 327 327 324 324 324 324 326 328 329 327 326 325 326 326 329 329 330 326 320 317 317 318 321 322 326 329 327 327 328 329 330 330 332 332 333 335 337 337 336 337 338 338 338 338 338 338 338 337 337 336 332 333 334 336 337 337 337 336 334 333 337 334 333 331 329 328 326 325 324 323 322 321 320 320 319 319
325 325 325 325 326 327 327 325 325 325 325 323 324 323 323 323 325 327 327 327 326 325 324 326 326 327 328 330 326 319 320 323 322 319 329 329 329 328 329 330 331 330 331 331 331 333 336 336 337 338 338 338 337 337 337 338 338 338 338 338 330 329 328 331 337 338 338 335 333 335 336 335 332 330 329 327 326 325 324 323 322 321 321 320 319
325 324 325 325 326 326 326 325 324 324 324 323 321 322 321 322 323 324 324 325 327 322 322 323 326 325 326 327 327 327 327 323 319 322 319 327 328 329 329 329 329 329 328 330 331 332 334 334 334 334 336 337 337 337 338 338 334 334 333 331 327 326 324 322 326 336 337 337 335 334 337 336 333 331 329 328 327 326 325 323 322 322 322 321 320
323 323 323 323 324 324 324 324 321 321 319 319 318 319 319 319 321 322 322 322 323 321 319 320 320 319 322 323 324 326 328 327 325 322 320 318 323 330 329 330 330 330 331 331 330 331 332 333 332 332 334 334 336 336 336 336 337 337 335 327 325 325 323 321 319 320 327 336 337 335 336 336 335 332 330 328 327 326 325 324 323 322 322 321 321
322 322 322 321 322 322 322 321 320 318 317 316 317 316 317 317 317 317 318 318 320 321 320 317 318 317 319 320 322 322 324 325 323 323 320 317 318 321 323 327 330 330 331 331 332 333 333 332 332 331 333 335 336 335 335 336 336 338 333 325 324 323 322 320 316 317 317 325 334 337 337 337 337 335 331 330 328 327 326 325 324 323 322 321 321
322 321 321 320 321 322 321 320 320 318 316 315 316 316 316 316 316 316 317 316 317 317 317 316 317 317 318 318 317 318 319 319 320 319 320 322 316 316 320 319 319 325 328 331 329 329 330 332 332 331 332 334 335 335 336 336 337 336 332 325 323 322 320 318 314 314 315 320 329 334 337 336 336 335 334 331 330 329 327 326 325 325 323 322 322
321 322 321 321 322 322 321 320 320 318 316 315 315 314 315 315 315 315 314 314 313 314 314 314 314 314 314 315 314 315 314 314 314 316 317 316 316 316 317 317 317 317 324 327 327 327 328 331 332 332 332 333 333 334 335 336 331 329 325 324 322 321 319 317 316 314 314 321 327 332 336 337 335 335 334 333 331 330 329 328 327 326 325 323 322
321 320 321 322 322 321 321 320 318 318 317 317 316 315 315 315 314 314 313 314 314 312 312 312 312 311 311 312 312 314 314 313 314 315 315 314 314 313 314 317 317 318 321 325 326 326 327 327 329 330 332 331 332 335 333 333 332 326 326 324 322 318 316 317 316 316 314 319 323 328 334 337 337 335 337 335 334 333 331 330 328 326 325 324 323
320 320 321 322 322 320 319 318 318 318 318 316 316 316 315 314 314 314 313 312 311 312 310 311 311 309 309 311 311 310 311 312 312 313 314 315 314 312 314 316 312 315 319 321 321 324 325 325 328 329 329 331 332 332 333 334 335 328 322 326 320 318 316 315 314 313 311 311 316 322 327 332 337 337 335 335 335 333 333 329 324 320 320 322 322
320 320 321 322 321 321 321 320 318 318 317 317 316 315 315 312 314 313 313 313 312 312 311 311 311 311 311 309 310 309 310 311 311 311 311 312 311 311 311 312 314 313 315 316 319 318 321 326 328 328 329 330 332 333 334 333 334 325 321 328 326 317 316 314 312 313 311 310 309 311 315 320 326 331 332 333 332 325 322 320 317 315 314 315 319
320 322 322 322 322 322 320 319 318 318 317 317 316 316 315 313 313 314 313 313 312 311 311 310 309 309 310 309 309 309 309 309 310 310 309 310 310 310 309 307 308 310 311 313 314 316 316 319 323 325 328 332 331 331 332 333 329 324 319 332 335 319 314 313 313 311 311 311 310 310 310 312 315 317 319 318 319 322 322 320 317 315 313 313 314
323 323 322 322 321 320 320 319 318 318 317 316 315 313 314 313 312 313 312 313 312 311 311 311 310 310 310 310 309 308 309 309 310 309 309 310 310 309 309 309 306 304 308 309 311 312 317 316 319 323 326 328 329 332 330 328 331 323 324 332 334 330 314 313 311 311 310 309 309 308 308 309 310 311 313 316 318 320 322 319 317 314 313 312 312
321 323 322 322 321 320 319 318 318 317 316 315 314 313 313 312 312 311 311 312 311 310 310 310 310 310 310 309 308 308 308 310 309 309 310 310 310 309 309 308 308 305 304 304 307 309 314 317 316 321 324 326 329 331 331 330 325 325 331 333 334 335 323 314 311 311 311 308 307 307 307 308 309 309 311 315 318 318 319 319 316 313 313 314 312
321 321 322 321 321 320 319 318 318 317 316 315 314 313 313 312 312 311 311 312 311 311 310 310 310 310 309 309 309 308 309 309 308 310 310 309 309 309 308 309 309 306 305 303 304 310 311 314 315 314 320 323 324 325 326 325 319 324 328 330 332 333 321 314 311 311 311 309 308 308 308 308 308 309 311 314 316 316 316 317 315 312 314 314 312
319 320 320 320 320 319 319 318 317 316 316 315 315 313 312 311 312 310 312 312 310 309 310 310 310 309 309 308 309 308 309 308 309 309 310 309 309 309 308 308 308 308 305 305 301 308 314 313 317 320 318 319 320 322 322 324 323 324 327 330 330 320 315 321 312 311 310 310 309 309 309 309 308 307 309 312 314 315 314 316 317 314 313 313 310
320 320 320 319 319 318 318 317 316 315 315 314 314 313 313 312 311 310 311 311 309 308 309 309 308 309 308 307 307 307 308 308 308 308 307 308 308 307 308 307 307 307 306 304 303 303 309 310 311 314 315 317 319 318 320 321 323 318 326 325 328 319 328 330 315 311 310 309 309 308 308 308 308 308 307 308 311 313 314 315 315 314 312 311 311
320 319 319 319 318 317 317 315 314 314 314 313 314 313 312 311 311 310 310 309 307 308 308 308 308 307 306 305 306 306 308 307 307 307 307 307 307 306 307 306 306 307 306 305 303 303 308 312 311 311 314 317 315 317 317 319 321 322 318 323 325 327 328 329 330 314 308 308 307 306 306 307 308 308 305 305 308 309 311 312 313 311 311 311 309
319 319 318 319 318 317 315 314 313 313 313 312 312 312 310 310 310 311 310 308 307 307 307 305 306 307 307 305 304 305 306 305 307 306 306 306 305 305 305 305 304 305 307 304 303 303 304 309 309 311 311 314 311 314 314 315 317 318 317 319 321 324 324 327 329 331 311 308 306 305 305 306 306 305 306 305 304 306 308 310 310 309 309 309 307
318 319 318 318 317 316 315 314 313 312 312 311 312 311 310 309 308 309 309 307 307 306 306 305 304 305 305 305 304 304 305 305 306 306 307 306 306 305 305 305 305 305 305 305 304 302 303 304 307 306 308 310 309 309 311 313 313 314 314 316 317 319 321 324 326 328 316 310 306 305 304 305 305 305 305 305 304 304 305 307 308 308 307 306 306
316 318 318 317 316 316 314 313 312 312 311 311 310 310 309 308 308 307 307 307 307 306 305 304 304 304 304 303 304 304 304 303 304 304 305 306 306 305 306 306 305 304 305 305 305 303 302 301 305 305 307 307 307 308 309 310 310 310 311 313 315 316 318 320 322 323 319 311 306 304 305 305 305 304 304 304 305 304 304 306 307 307 306 305 305
317 317 317 317 316 315 314 312 312 311 311 310 309 309 309 309 308 307 307 306 306 305 305 304 303 304 303 303 303 303 303 303 303 303 303 304 304 305 305 305 305 305 305 304 304 303 302 301 302 305 306 305 306 307 307 307 308 309 310 311 312 313 316 319 320 321 314 310 308 307 305 304 304 304 304 304 304 304 304 305 306 306 306 306 305
316 316 316 315 315 314 313 312 312 311 310 310 309 308 308 308 308 307 306 305 305 304 304 304 303 303 303 302 302 303 303 302 302 303 303 303 302 302 303 303 304 304 304 304 304 303 302 302 302 302 304 303 304 305 306 307 307 306 307 309 311 312 313 315 318 321 325 324 326 326 311 306 304 302 304 304 304 303 304 304 305 306 306 305 305
315 314 315 314 315 314 313 313 311 310 309 309 309 308 308 307 306 305 305 305 304 305 303 302 302 302 302 302 302 302 302 302 302 302 303 303 303 303 303 303 303 303 302 302 302 302 301 301 301 302 302 304 304 302 305 306 306 306 305 306 308 311 314 316 317 320 323 323 318 310 313 313 309 312 307 304 304 303 304 304 304 305 305 304 304
312 312 313 313 314 314 313 312 311 310 309 309 308 308 307 306 306 305 304 304 303 302 302 301 301 300 300 300 301 301 301 302 302 303 303 302 302 302 302 302 302 301 301 301 301 300 300 300 300 300 301 302 302 304 305 304 303 304 306 307 306 308 310 313 314 315 318 320 321 323 313 310 309 307 304 303 303 303 303 303 304 305 305 304 303
314 313 313 312 311 311 311 311 310 310 309 308 308 307 306 305 305 304 303 301 300 300 299 299 299 299 299 300 300 300 300 299 299 299 299 300 300 300 301 302 301 300 300 300 300 299 299 299 299 300 300 300 301 301 301 302 301 301 304 305 304 305 307 308 310 313 316 316 318 319 319 323 321 323 322 322 321 309 308 304 308 305 304 303 303
311 311 308 310 310 308 308 307 306 307 308 308 304 299 301 304 303 301 300 300 299 299 298 298 298 299 299 299 300 299 299 298 298 296 295 295 297 299 300 301 301 300 299 299 298 299 298 298 298 298 298 298 300 301 301 302 303 303 302 302 301 303 305 306 308 311 314 317 316 316 318 321 321 320 321 320 322 320 320 315 314 312 307 303 303
309 308 309 307 307 306 306 306 306 306 307 305 295 294 295 297 300 300 299 299 298 298 298 297 297 297 298 298 299 299 299 298 299 295 294 294 294 294 294 296 297 299 298 298 298 298 298 297 298 298 297 298 299 301 301 302 303 302 301 301 300 301 301 301 301 307 313 316 315 315 316 321 320 318 319 319 320 321 319 319 307 304 305 303 302
309 309 308 307 307 307 306 306 305 305 305 298 293 293 293 294 296 299 299 298 298 297 297 297 297 297 297 298 299 299 299 299 298 298 296 294 293 293 292 292 292 293 294 298 298 297 298 297 297 297 298 298 298 300 300 301 301 301 301 301 300 299 300 300 301 302 310 316 312 311 312 318 319 317 317 318 319 320 320 312 305 303 303 303 302
310 308 307 307 305 305 305 305 304 304 303 294 293 293 292 292 293 297 298 298 297 297 297 297 297 297 297 297 297 298 299 297 298 299 299 299 295 294 293 293 293 292 291 291 292 298 298 297 297 296 297 298 298 299 301 300 301 299 300 299 299 300 300 300 301 303 308 311 307 306 308 313 316 315 315 318 320 320 319 307 303 303 302 302 302
308 308 309 307 305 304 304 304 304 303 303 295 292 292 292 291 290 293 297 297 297 296 296 296 297 297 296 296 296 296 297 298 298 298 298 298 298 298 298 298 298 297 293 292 291 291 294 297 297 295 298 299 298 299 301 301 299 298 298 298 300 299 299 299 302 304 306 308 304 303 303 308 313 314 313 317 319 319 318 312 303 302 302 302 302
306 307 307 306 305 305 304 304 303 303 303 292 291 291 291 291 289 292 298 297 297 297 297 297 296 296 296 296 296 296 296 297 297 296 296 296 296 295 295 296 297 297 298 299 299 299 298 298 297 297 298 299 299 299 300 301 301 300 300 300 300 300 300 301 301 302 303 305 306 304 300 306 313 312 313 316 318 317 318 309 301 301 301 301 300
307 305 305 304 303 304 304 303 302 301 299 291 291 291 290 290 290 297 297 297 296 296 296 296 296 296 296 296 296 296 296 296 294 291 292 294 294 293 293 294 294 295 296 296 295 295 297 298 298 298 299 299 296 300 299 300 300 301 300 300 300 299 298 296 296 299 300 305 307 304 302 303 309 309 311 315 316 314 315 314 301 299 300 299 299
306 304 303 303 302 301 301 302 301 299 298 293 290 290 290 289 292 297 296 295 295 295 295 295 295 295 296 296 295 295 295 295 293 290 290 291 293 292 292 292 292 293 294 296 294 292 292 292 292 292 291 291 291 292 292 292 296 298 298 296 295 297 296 294 296 297 299 303 305 306 304 303 307 308 309 312 313 312 312 311 311 299 297 298 298
303 302 301 301 301 300 300 300 300 298 298 294 290 290 290 289 292 295 295 294 294 294 294 295 295 295 295 294 294 294 294 295 291 289 289 291 292 291 291 290 290 290 291 293 295 295 293 292 291 291 291 291 291 291 291 292 292 294 296 293 296 296 295 295 294 297 299 301 302 306 304 302 306 308 306 309 308 309 311 310 306 304 297 297 296
302 300 298 297 297 299 299 298 298 298 296 294 290 290 290 289 293 296 295 294 293 293 294 293 295 295 295 295 293 293 293 293 289 289 288 290 291 290 290 289 288 288 290 292 291 292 293 293 294 294 294 293 294 295 295 292 292 293 296 296 297 296 294 295 295 296 295 298 302 306 302 303 304 306 307 305 303 308 308 308 304 303 303 303 302
Wind_Speed
5 4 3 3 3 5 4 4 3 3 3 5 4 4 3 3 3 3 3 3 3 2 1 1 1 0 0 1 1 1 1 2 3 4 4 3 4 5 6 6 6 6 6 7 7 6 7 6 4 5 5 5 4 4 5 5 4 4 5 3 3 3 4 7 8 8 8 8 8 9 8 8 9 9 9 10 10 10 10 10 11 11 11 11 11
4 3 3 1 4 4 4 4 6 5 6 6 5 4 4 3 2 3 2 1 2 2 2 2 2 1 1 1 2 2 1 2 3 4 4 4 4 4 6 5 6 6 6 6 7 7 7 6 6 5 5 4 5 5 4 4 4 4 3 4 2 2 3 3 8 8 9 8 8 8 8 9 9 9 9 9 9 10 10 10 10 11 11 11 11
4 3 4 2 5 2 3 2 4 4 4 5 4 4 3 2 3 3 3 3 2 2 2 2 2 2 1 2 2 2 3 2 3 3 4 4 4 4 6 7 6 7 7 5 6 7 7 7 7 6 5 5 5 5 5 5 5 4 4 5 2 1 2 2 8 7 8 8 9 8 8 9 9 9 9 9 9 9 9 10 10 10 10 11 11
3 3 3 3 4 4 2 4 5 1 3 3 3 3 3 2 3 1 0 1 1 2 2 2 2 2 2 3 2 3 4 3 4 4 4 4 4 4 4 6 8 7 7 6 6 5 7 7 8 7 6 5 6 5 5 6 5 4 4 3 2 1 0 3 7 7 6 7 8 8 8 8 8 8 9 9 9 8 9 9 10 9 10 10 10
3 4 4 4 7 6 4 6 5 4 4 4 5 4 4 4 4 3 3 2 3 2 2 2 3 2 2 3 3 4 4 4 4 4 4 5 4 4 4 5 6 9 8 6 6 6 6 7 8 7 7 6 7 7 6 5 5 5 5 4 4 3 1 2 3 8 6 6 7 8 8 7 7 8 8 9 9 8 8 9 9 9 9 10 10
2 5 6 4 3 0 2 4 5 4 3 3 3 3 4 5 4 4 4 3 3 1 2 2 2 2 3 3 4 4 4 5 5 4 3 4 4 4 4 4 5 5 7 10 8 7 7 6 8 8 7 6 6 6 6 5 5 5 5 5 5 4 3 3 2 8 7 6 7 7 7 7 7 8 8 8 9 8 8 8 8 9 9 9 10
2 3 2 1 3 1 1 5 4 2 2 2 4 5 6 6 5 4 3 3 2 1 0 1 1 1 2 3 5 5 4 5 4 4 4 4 4 4 4 4 5 5 5 6 9 9 9 8 8 8 8 7 8 8 7 5 5 5 5 5 6 5 5 4 2 6 8 7 6 7 8 8 8 8 9 8 8 8 8 8 8 8 9 9 9
3 2 3 0 1 0 3 2 3 5 5 7 7 6 6 5 4 4 4 3 3 2 1 0 1 1 1 2 3 4 5 4 4 4 4 4 4 4 4 5 5 6 6 5 6 8 11 9 9 7 8 9 8 9 9 7 6 5 5 5 6 6 6 5 4 5 8 8 7 6 7 8 7 8 8 9 8 8 8 8 8 8 8 8 8
1 2 4 3 2 1 3 2 2 3 6 5 5 3 4 6 5 4 3 3 3 3 3 1 1 2 2 2 3 3 5 5 4 4 3 4 4 4 5 5 6 6 5 6 6 6 9 10 10 9 8 9 10 11 10 9 9 7 6 5 7 8 7 7 6 6 7 9 9 7 7 7 8 8 8 9 9 8 8 8 8 8 8 8 8
3 4 4 4 3 2 2 2 3 3 5 5 7 8 6 7 6 4 3 3 2 3 3 2 2 3 3 4 5 4 4 4 3 3 4 5 5 5 5 4 5 6 6 6 6 6 6 9 10 9 9 9 10 12 12 11 9 9 9 6 6 8 7 7 8 8 6 10 9 9 9 8 9 9 9 9 9 9 9 8 8 8 8 8 8
4 5 5 4 3 3 2 2 3 5 3 4 4 4 5 5 5 4 5 5 4 2 2 1 1 3 4 5 5 6 4 4 4 4 4 5 6 5 4 5 5 6 6 6 6 6 7 6 7 8 9 12 11 12 13 13 12 10 8 9 7 8 9 8 8 9 9 10 11 10 11 11 10 9 9 9 9 9 9 9 8 9 8 8 8
3 4 5 4 4 3 4 3 3 3 4 4 3 5 6 6 5 6 6 4 3 2 3 3 2 3 5 6 6 5 6 4 4 5 4 4 5 4 5 5 5 6 7 6 6 6 6 7 7 7 7 10 13 12 13 12 11 11 12 9 9 9 8 9 9 9 11 10 12 11 12 12 12 11 10 9 10 10 10 10 9 9 8 8 7
4 4 4 4 5 5 4 3 3 3 3 4 4 1 2 4 5 5 6 5 3 4 3 4 3 1 4 8 7 5 4 5 5 5 5 4 3 4 5 5 5 6 6 6 6 6 6 7 6 7 7 6 9 13 13 13 12 11 13 14 12 10 9 9 10 10 11 11 12 12 12 12 12 13 11 10 10 10 11 10 10 10 9 9 8
4 4 4 4 6 6 6 5 4 5 5 5 5 4 4 4 4 3 2 5 4 4 5 4 4 4 2 2 3 3 1 2 4 5 5 4 4 4 4 5 7 6 5 5 6 6 6 6 6 6 7 7 7 7 9 11 12 14 12 16 16 14 12 11 9 10 10 11 13 13 13 13 13 13 12 12 11 12 12 12 11 11 11 10 9
4 4 4 5 5 5 4 4 4 5 7 8 7 6 5 5 4 4 4 2 2 2 5 6 4 3 1 2 2 1 0 2 1 2 3 3 3 5 5 6 7 6 4 4 5 5 6 6 6 6 7 7 7 7 8 9 11 14 16 16 17 16 16 14 11 11 11 11 13 14 15 14 14 13 13 13 13 13 13 13 12 12 11 11 10
5 6 5 5 5 5 5 4 5 4 6 7 6 7 6 5 4 4 5 6 3 2 1 3 3 6 3 4 2 2 2 5 1 0 1 1 3 5 4 5 4 4 4 4 5 4 4 5 6 6 6 7 7 7 7 8 10 10 13 16 16 15 17 17 16 14 10 12 13 15 15 16 15 14 13 13 12 13 13 14 14 13 12 12 11
5 5 6 5 5 5 5 5 5 4 5 6 6 5 5 5 5 4 3 4 5 3 3 2 3 1 1 2 2 2 3 1 2 2 2 2 1 2 2 3 4 4 4 5 5 5 5 6 6 6 7 7 7 8 7 8 8 9 11 14 16 17 17 18 18 16 14 13 15 15 17 18 17 15 15 14 13 14 14 14 15 14 14 13 13
5 6 6 6 5 5 5 6 5 5 6 6 6 6 6 6 5 4 4 5 4 4 4 5 5 4 4 2 1 1 1 1 0 2 1 1 1 2 3 1 0 1 2 3 4 4 4 5 5 6 7 7 7 7 7 8 8 7 8 10 17 17 16 16 18 18 17 15 13 16 18 19 19 17 16 15 15 16 15 16 15 16 15 15 14
5 6 6 5 5 5 6 6 6 6 5 6 7 6 6 6 5 6 5 4 3 5 4 3 2 5 5 4 3 3 2 1 2 1 3 0 1 1 0 1 2 1 1 1 1 1 2 3 4 5 5 6 7 7 7 8 10 10 10 10 11 16 17 16 15 17 18 17 15 15 19 19 20 18 17 16 16 16 16 16 16 16 16 16 16
6 6 6 5 5 5 6 6 7 6 6 7 7 6 6 6 6 6 6 5 6 4 4 4 2 3 4 4 4 3 3 2 2 3 3 2 1 1 2 1 3 2 2 1 1 2 3 3 4 4 5 6 6 6 7 8 8 9 9 13 12 13 15 16 16 16 16 16 17 16 17 19 20 19 18 18 17 17 17 17 16 16 16 15 16
5 6 6 7 6 6 7 7 7 7 7 7 7 7 7 7 6 6 6 6 5 4 4 4 4 4 3 3 3 4 2 3 4 3 2 2 3 3 4 3 2 1 2 3 4 3 3 4 4 5 4 5 5 6 6 7 7 8 10 12 14 15 14 15 16 16 16 15 13 16 17 21 20 22 21 19 18 18 19 18 18 18 17 17 16
4 5 7 7 7 6 7 7 7 7 6 7 8 8 7 7 7 7 7 7 6 6 6 4 4 5 4 3 3 3 3 2 3 4 3 2 4 3 3 5 6 1 4 3 4 4 5 4 5 5 5 5 5 5 6 7 7 7 9 11 12 13 14 15 15 16 16 16 14 16 18 18 19 20 21 21 21 20 20 20 19 19 18 18 17
5 5 6 7 6 6 6 6 6 6 7 7 7 7 7 7 7 8 8 8 6 7 7 6 5 6 6 5 4 4 3 3 3 3 4 4 5 5 5 4 6 7 4 3 4 5 4 4 4 4 4 5 5 5 5 6 8 9 9 8 11 13 14 15 15 15 15 15 15 17 18 19 19 20 20 22 22 21 22 21 20 19 19 18 18
5 5 6 6 6 6 6 6 6 6 7 6 6 7 6 6 6 6 7 7 7 7 7 7 6 5 6 5 4 3 3 3 3 3 4 4 4 6 6 6 7 6 5 6 7 6 5 5 4 3 4 3 4 4 5 6 7 8 9 11 10 12 13 14 15 15 16 15 16 16 18 20 20 20 20 21 23 22 22 22 22 21 20 19 19
6 6 6 8 7 7 7 6 6 6 6 7 7 7 6 6 6 7 7 7 6 6 7 7 7 6 5 4 4 3 3 3 3 3 3 4 4 6 6 6 8 8 7 7 6 5 6 6 5 4 3 3 3 3 4 5 5 7 11 10 11 12 13 14 15 16 16 16 16 17 17 18 20 21 21 20 23 22 22 21 19 17 17 18 19
7 7 7 7 6 7 7 7 7 7 7 7 6 6 6 6 6 6 6 5 6 7 7 6 6 6 4 4 4 4 3 3 2 2 3 4 4 5 7 7 7 9 7 7 7 8 6 4 4 5 5 4 3 2 2 4 4 6 9 8 9 12 13 13 14 14 15 16 16 16 16 15 15 16 17 16 17 18 19 18 18 17 17 17 17
7 6 7 7 6 6 7 7 7 7 7 6 5 6 6 6 6 6 5 5 5 5 5 5 5 5 5 4 3 4 3 3 3 3 2 2 3 4 5 7 7 7 7 7 8 8 8 7 7 7 6 3 3 3 3 4 4 5 5 7 7 10 11 11 13 14 16 16 16 16 16 16 15 15 14 13 15 19 17 17 19 18 17 17 17
4 5 6 7 7 7 7 7 7 7 6 6 6 5 5 5 5 5 5 3 5 5 4 5 5 5 4 3 3 4 3 3 2 3 3 3 3 3 3 4 7 9 7 8 7 7 6 7 6 6 5 4 5 5 5 4 3 1 6 6 6 6 11 14 14 15 16 16 16 17 17 16 14 15 15 16 13 14 18 17 18 18 18 18 18
5 4 6 6 7 8 7 7 7 7 7 6 6 6 5 5 5 5 4 3 3 4 3 3 4 3 3 3 3 2 2 1 1 2 2 1 2 2 3 4 4 7 8 9 8 7 5 5 6 3 4 6 6 6 6 7 6 8 8 7 7 8 9 13 14 16 16 15 15 16 16 15 16 16 15 16 16 13 18 20 19 19 19 18 18
5 5 6 7 7 8 7 7 7 6 6 6 5 5 5 4 5 4 3 3 3 2 2 3 3 2 2 2 2 2 2 2 2 1 1 1 2 2 2 3 4 6 7 9 10 6 8 7 8 8 5 7 7 7 6 8 7 9 9 8 7 8 7 11 14 15 14 14 15 16 15 17 18 16 17 17 18 16 16 20 19 19 19 20 20
5 6 6 7 7 8 8 8 7 7 6 6 5 5 4 4 4 4 3 3 2 3 2 1 2 2 2 2 1 2 2 2 2 1 1 2 2 2 3 3 4 5 7 7 11 5 3 6 6 6 9 10 9 10 9 8 6 8 9 8 8 9 7 9 13 14 15 15 15 15 15 17 18 18 19 20 20 19 17 18 20 20 20 20 21
6 7 7 8 9 9 8 8 7 7 6 5 5 5 4 4 3 3 3 3 3 2 2 2 1 1 1 2 2 2 2 3 2 2 3 3 3 4 4 4 4 5 6 8 10 13 7 9 9 9 10 10 10 10 10 9 7 7 8 8 9 9 7 8 12 15 15 15 15 15 15 17 17 17 18 19 19 20 20 20 20 21 22 22 22
7 8 8 9 10 10 10 9 9 8 7 6 5 4 4 4 4 4 4 3 2 2 1 1 1 1 2 2 3 3 2 3 3 4 4 3 4 4 5 5 5 5 6 8 10 12 8 6 8 8 8 8 9 8 9 9 9 8 9 9 9 8 8 8 9 11 14 14 14 15 15 15 16 16 17 18 19 19 20 20 21 21 21 22 22
8 9 10 9 9 10 10 10 9 9 8 7 6 5 5 5 5 3 3 3 2 2 1 1 2 2 2 4 5 4 4 4 4 5 4 4 4 5 4 5 6 6 6 8 10 10 12 6 7 7 9 8 10 9 9 9 9 8 11 11 9 8 7 8 8 9 8 11 12 12 14 15 16 17 16 16 17 18 20 20 20 20 21 22 22
8 9 10 10 11 11 10 10 10 9 9 8 6 7 6 7 6 5 4 3 2 2 1 0 2 2 3 4 5 5 4 5 5 5 5 5 5 5 5 5 6 7 7 8 9 11 12 10 8 9 7 7 8 10 10 9 9 9 11 11 10 8 8 8 8 8 8 5 8 9 11 13 15 17 16 15 16 17 18 19 18 19 21 22 23
9 8 9 11 11 11 11 10 10 9 9 8 8 7 7 6 6 6 5 4 3 3 1 1 1 2 3 4 4 5 5 6 6 5 5 5 5 5 6 6 6 6 7 8 9 10 11 13 9 8 8 9 8 9 8 8 10 10 10 11 11 12 11 9 9 9 7 4 5 8 10 12 14 14 15 14 14 15 16 17 18 19 20 21 22
9 8 8 9 10 11 10 11 10 10 10 10 9 8 7 6 5 5 4 4 3 2 1 1 2 3 4 5 5 5 5 6 6 6 5 7 7 6 7 6 6 6 6 7 9 9 11 13 12 10 9 10 9 9 9 10 9 9 9 10 10 10 11 10 9 8 8 8 10 10 10 10 12 13 13 13 14 15 15 16 18 18 19 21 22
9 10 11 10 11 12 11 11 10 10 10 9 9 8 8 7 6 5 4 3 2 0 1 2 3 4 5 6 6 6 6 7 7 7 7 8 7 8 9 8 8 7 8 9 9 10 11 13 13 12 10 10 9 9 9 9 9 10 9 9 9 9 10 10 8 6 6 7 5 5 6 8 12 13 12 12 13 14 15 16 17 18 19 21 23
6 6 8 11 9 11 10 9 10 10 10 9 8 8 8 7 6 6 4 3 1 0 2 3 4 4 5 5 6 6 7 7 8 8 8 8 7 9 9 8 9 9 9 10 10 11 11 12 12 12 11 9 9 10 8 8 10 10 10 9 9 7 7 7 8 6 5 7 7 9 8 10 9 5 9 13 14 15 16 16 17 18 19 21 21
8 11 11 10 7 8 8 9 9 9 9 8 8 8 7 7 6 5 4 3 1 1 1 2 3 4 5 6 6 7 7 8 8 8 8 8 8 9 8 8 8 9 10 10 11 11 12 12 12 11 10 10 8 8 8 8 9 9 8 8 9 8 8 7 8 8 8 7 8 5 7 8 9 9 9 10 13 14 15 14 16 17 19 20 21
8 4 4 5 7 7 8 8 8 7 8 8 7 7 7 7 5 5 4 3 2 1 1 2 3 4 5 6 6 7 8 9 10 11 11 10 9 10 9 9 10 11 11 10 10 10 11 11 12 11 11 11 9 9 8 7 7 8 8 8 10 9 9 9 9 8 8 8 8 8 7 6 8 8 7 7 8 12 12 15 14 17 18 18 19
9 12 14 12 11 12 9 9 9 7 7 6 7 10 8 6 5 4 4 3 2 1 1 2 4 5 6 7 7 10 11 12 13 13 12 13 13 12 11 10 10 11 12 12 12 11 11 11 11 11 12 11 10 9 10 9 7 8 10 10 9 9 10 10 9 8 7 8 9 9 7 5 7 7 7 8 7 7 7 8 10 12 15 19 19
9 10 10 12 11 9 9 9 9 7 6 6 13 11 10 8 6 5 3 2 1 1 2 3 5 6 7 8 8 9 10 11 12 13 14 15 14 14 15 15 14 13 12 13 13 13 13 13 12 12 12 13 12 11 11 9 8 8 8 9 9 8 9 9 9 6 5 6 7 8 8 7 6 8 8 8 8 7 7 8 10 14 15 17 19
9 9 9 9 9 9 7 8 8 7 6 10 13 11 10 9 6 4 3 1 1 2 3 4 5 6 8 8 7 7 8 9 10 11 11 13 15 15 16 16 16 17 16 15 13 12 13 13 13 14 14 14 12 10 10 10 10 10 9 9 10 9 10 10 9 8 4 4 7 8 9 7 7 8 9 8 8 8 9 9 12 13 15 16 17
9 10 11 10 9 8 9 10 9 7 7 11 12 12 11 9 6 2 2 1 1 2 4 5 6 7 7 8 8 7 7 10 10 10 10 10 10 11 13 15 16 17 17 18 18 16 14 15 15 15 14 13 14 12 12 12 11 13 12 11 10 10 10 10 9 9 8 4 6 7 10 8 7 8 10 9 8 8 8 9 11 13 14 15 16
9 9 10 10 9 10 9 9 8 8 8 10 11 10 10 9 8 3 1 0 1 3 4 5 5 6 7 8 8 8 8 9 9 10 10 10 10 11 11 12 13 14 16 19 20 20 18 17 18 18 15 14 15 14 14 13 13 13 12 13 12 12 12 12 11 10 10 8 9 8 10 10 8 10 11 10 8 7 8 6 10 12 13 14 15
10 11 12 11 10 10 10 9 9 8 6 10 10 10 9 8 7 4 1 1 1 2 3 4 5 6 8 8 9 9 9 9 8 9 10 11 11 12 13 14 14 14 15 15 14 13 13 15 17 18 18 17 17 17 15 14 15 14 13 14 14 13 13 14 14 14 14 12 13 10 11 9 8 9 10 9 8 8 7 1 6 10 11 12 14
5 5 6 7 9 9 9 10 10 8 6 10 10 10 8 7 7 2 1 1 1 3 4 4 6 6 7 8 9 9 10 9 10 9 9 11 13 14 15 15 15 15 14 14 14 12 14 14 15 16 15 15 13 12 13 13 13 13 12 13 13 13 13 13 14 10 11 9 10 11 11 11 9 10 10 8 8 8 6 5 3 6 7 9 11
9 10 9 8 8 9 10 9 10 8 8 8 10 9 8 7 4 0 1 2 3 4 5 6 6 7 7 8 9 9 10 10 10 8 8 9 13 14 15 15 14 14 14 13 13 13 14 17 19 20 21 21 21 20 17 15 12 13 13 14 15 12 12 14 13 11 12 9 10 11 11 12 10 9 10 9 9 7 6 5 3 1 4 6 8
8 6 5 6 6 6 7 8 9 9 8 7 8 7 6 5 2 1 3 4 5 6 7 7 7 8 9 12 13 11 11 12 11 7 6 8 14 15 15 16 17 16 14 11 11 12 13 14 17 19 20 20 20 19 19 18 18 13 15 18 15 13 16 14 14 12 11 10 10 9 10 12 10 10 10 9 3 6 9 3 1 0 2 2 5
5 6 8 9 9 6 5 6 8 9 7 6 6 6 5 5 3 2 4 5 6 7 8 8 8 8 8 8 10 11 12 13 13 13 12 12 15 15 15 16 16 16 14 14 13 13 14 15 14 13 13 15 15 16 18 20 20 19 18 19 14 15 17 15 14 13 13 11 9 10 11 11 10 9 9 9 9 5 2 4 1 1 2 2 3
Wind_Direction
190 189 174 185 201 203 195 203 219 200 188 203 209 207 219 223 190 194 188 161 145 153 205 221 267 225 273 200 214 169 198 224 227 223 225 221 217 183 201 212 216 225 215 201 186 175 179 183 177 155 160 165 168 168 158 159 165 166 145 153 125 72 68 132 127 121 116 112 118 115 112 107 106 105 103 100 96 94 92 91 90 86 81 78 75
191 186 183 184 242 204 202 193 204 205 193 207 196 190 206 199 189 187 172 208 171 150 202 214 233 251 249 257 228 234 192 226 226 229 225 224 220 206 190 223 216 220 243 218 202 186 184 188 170 173 167 175 176 181 177 183 170 191 173 144 155 47 37 124 132 132 125 118 119 121 118 115 111 108 107 105 102 98 96 95 95 92 89 85 79
359 1 48 21 248 242 240 221 215 223 226 218 202 201 200 220 203 191 176 209 202 149 202 220 245 239 230 248 245 251 242 230 241 240 240 232 227 221 198 205 217 220 227 241 234 205 189 190 183 183 181 186 188 185 183 196 187 186 201 165 170 77 21 64 142 135 129 127 129 124 123 121 118 113 111 112 110 106 104 101 100 100 97 93 87
71 84 85 235 276 250 226 252 219 229 252 231 215 204 223 215 232 183 129 223 246 184 193 229 238 247 247 248 238 243 238 235 240 234 244 245 238 224 223 206 202 215 220 232 235 240 198 195 192 200 190 201 184 184 188 190 194 194 204 189 177 165 355 25 153 138 141 137 136 133 127 124 123 118 112 110 111 111 108 108 104 103 103 102 99
114 91 117 210 219 212 179 224 226 212 226 222 220 214 219 219 217 198 191 204 229 216 190 212 229 229 247 246 243 240 240 238 232 233 237 239 240 235 230 220 214 192 213 222 228 239 231 205 204 205 196 204 184 185 189 191 197 203 208 218 196 201 163 286 194 148 154 145 140 140 133 129 126 127 123 117 113 111 108 106 105 101 99 97 97
68 123 155 189 271 9 175 231 243 224 221 251 216 218 217 212 212 203 190 201 204 203 226 213 215 230 233 249 252 251 241 242 235 230 225 236 236 230 225 223 218 218 203 207 220 226 229 229 216 214 201 204 196 190 193 194 197 204 215 221 208 217 214 240 289 167 155 156 152 148 138 137 136 130 129 124 120 117 114 109 107 104 101 101 101
96 101 115 187 254 282 212 223 235 251 232 218 207 216 212 205 197 193 160 172 189 199 291 305 317 279 284 286 258 256 236 243 232 230 222 220 225 229 222 221 222 220 211 207 200 216 221 221 225 215 216 213 199 201 209 203 202 201 209 211 217 213 222 223 282 194 158 170 163 152 149 146 144 140 135 133 127 126 122 118 113 111 106 103 104
146 127 95 296 359 243 220 156 182 175 203 202 208 210 218 209 186 181 172 186 212 195 159 307 326 351 359 304 300 274 256 235 223 224 218 211 224 217 215 220 218 220 214 218 211 205 204 215 222 219 219 220 209 205 208 215 215 212 211 209 212 214 223 227 234 228 187 171 168 169 159 154 151 148 144 141 138 134 132 129 122 116 113 110 105
94 121 133 126 146 165 230 175 118 170 183 205 209 231 213 212 203 195 171 201 228 257 254 239 268 294 309 329 322 286 261 248 225 210 182 211 218 219 220 220 213 211 213 220 214 212 187 208 215 220 224 217 216 212 217 217 219 214 216 218 206 209 217 229 230 244 208 185 173 170 172 167 157 156 153 148 148 142 136 133 132 125 120 115 111
76 78 91 129 147 179 198 117 140 159 164 185 201 209 211 211 208 202 212 205 192 230 251 259 264 281 299 321 329 306 278 265 246 198 213 216 211 221 225 222 215 215 218 216 218 209 206 193 209 220 224 220 211 211 221 226 229 219 214 224 210 212 222 219 225 233 234 197 187 175 174 173 167 165 161 157 154 150 144 141 139 137 132 128 123
79 80 92 104 121 143 139 150 166 156 159 166 168 177 213 226 223 222 218 219 218 197 214 214 306 308 304 300 309 312 287 265 261 231 215 227 233 222 212 215 218 216 219 218 211 210 208 210 203 215 218 211 214 212 218 226 234 235 231 221 229 218 217 224 222 221 231 207 195 184 176 173 173 171 166 165 160 158 154 148 148 143 141 138 135
83 90 94 98 108 121 143 180 194 189 152 157 154 186 196 194 202 220 215 205 186 159 142 140 98 303 294 297 287 293 284 254 243 249 231 217 223 217 227 220 218 218 220 221 215 210 208 205 210 215 223 201 207 214 216 224 230 238 240 241 231 233 221 221 225 221 228 218 210 191 180 178 172 174 174 171 166 167 161 158 154 150 148 145 145
88 95 104 111 96 91 108 126 138 159 155 136 168 144 137 167 177 205 224 213 200 171 152 141 135 226 269 273 275 252 240 238 235 235 236 233 220 224 228 225 225 222 222 217 217 213 209 208 210 218 220 225 200 210 218 220 226 225 228 237 244 239 232 222 223 228 218 221 203 202 182 187 177 176 178 179 175 175 167 167 161 157 155 153 152
84 98 110 108 105 106 107 110 110 99 93 96 105 108 125 123 144 136 207 220 204 192 178 142 193 204 180 290 290 278 187 227 246 234 235 226 227 228 230 231 232 229 218 215 219 218 217 211 214 217 220 222 225 212 211 219 224 222 218 225 234 240 242 234 228 225 216 213 194 203 196 193 185 181 182 182 180 182 173 173 169 165 162 161 160
87 96 104 100 101 102 97 92 79 86 87 82 81 77 92 112 133 148 144 120 76 103 167 195 201 155 169 106 251 347 268 220 219 257 268 265 249 248 244 244 248 241 226 227 228 225 223 218 216 216 219 225 230 224 220 221 227 207 211 220 226 232 236 243 241 232 218 211 192 197 194 189 191 188 187 187 186 187 180 177 175 172 168 167 167
81 98 94 84 88 94 92 82 72 63 82 82 76 78 70 68 90 120 141 136 157 110 62 204 187 152 183 215 160 142 8 253 253 324 340 247 242 245 240 251 251 240 238 235 233 231 230 229 227 224 227 230 231 228 230 230 221 209 206 215 221 225 230 234 240 241 230 209 199 196 190 190 193 194 196 197 197 196 189 181 178 177 174 173 172
79 82 92 86 82 86 90 86 80 70 75 80 76 65 64 71 77 86 92 124 133 112 53 22 162 58 125 140 148 200 213 154 328 209 163 167 135 192 178 240 242 241 243 244 234 224 227 228 228 230 227 228 229 232 236 235 232 221 214 215 220 222 224 228 233 239 238 226 209 197 189 196 194 194 199 202 202 201 199 191 182 181 179 178 175
82 88 89 93 87 87 91 94 88 79 76 82 84 80 64 61 52 76 76 51 85 92 86 39 51 38 25 338 13 334 159 138 228 219 133 65 118 66 56 66 97 209 254 262 248 243 221 232 224 231 232 231 233 235 234 236 232 226 225 218 211 219 221 222 228 234 235 235 229 201 191 196 198 198 200 203 202 202 204 199 189 184 183 181 178
93 94 94 90 91 87 87 85 84 81 77 77 72 66 66 55 51 55 44 44 65 96 79 71 73 43 30 36 50 42 315 273 241 321 276 102 176 281 323 359 46 13 316 264 264 251 256 259 246 245 237 232 235 240 240 239 236 237 235 237 207 212 218 218 222 230 235 236 232 214 202 202 202 200 201 199 200 203 204 202 199 191 188 186 181
111 107 107 105 100 95 95 93 88 83 82 79 78 73 71 64 60 63 56 46 43 59 73 50 50 57 27 38 35 15 0 337 9 299 284 286 280 146 158 130 321 322 296 38 4 321 287 263 251 236 232 232 230 233 237 241 240 233 230 222 224 214 215 218 219 224 233 235 235 230 216 203 202 204 200 194 197 202 203 204 202 201 195 192 187
106 109 111 113 110 110 106 102 98 94 90 89 85 81 75 70 65 62 61 59 52 49 62 56 47 38 15 32 15 19 9 47 26 13 326 287 261 303 307 327 304 154 75 338 318 307 294 276 274 276 255 241 237 233 236 238 237 234 238 216 213 217 218 219 219 222 225 230 230 234 226 205 209 207 201 195 198 199 203 203 202 202 200 195 192
121 118 117 116 115 114 109 106 105 98 91 94 97 92 87 82 77 75 75 74 62 55 55 58 59 52 42 23 11 354 335 327 6 357 305 279 300 303 323 333 314 325 332 313 326 320 296 273 259 259 261 256 248 241 237 240 237 240 239 223 214 215 220 221 221 222 224 227 225 226 235 224 219 212 204 203 198 202 203 204 204 203 202 200 195
138 136 131 128 122 116 110 106 102 103 103 103 97 96 96 95 92 86 81 81 78 74 67 55 55 53 46 42 39 34 20 359 350 341 328 301 295 278 286 279 297 308 294 298 301 294 274 254 254 247 248 254 264 264 253 249 245 245 254 228 217 218 219 221 223 224 226 230 231 229 227 233 229 220 213 204 205 204 205 206 205 204 203 201 201
154 148 150 145 134 126 121 118 111 108 104 105 106 105 102 99 95 91 88 85 84 81 74 67 59 63 54 47 53 44 38 26 5 327 321 311 307 296 288 296 289 279 293 303 290 276 270 280 284 264 251 251 237 240 257 257 254 243 238 237 227 222 222 225 225 227 225 226 232 236 234 230 233 231 215 209 204 207 207 206 205 205 204 203 202
169 164 160 157 144 139 140 131 123 115 116 112 111 109 106 101 98 95 90 85 82 83 80 74 66 57 54 54 48 52 56 38 17 346 321 308 295 293 290 298 289 293 290 291 289 279 281 276 267 272 272 248 252 243 241 239 248 228 220 246 223 221 223 224 224 225 226 226 230 234 237 236 232 232 232 219 211 209 210 208 203 202 200 200 201
171 174 165 163 158 149 142 132 126 126 123 120 117 114 113 108 109 104 100 96 95 92 90 86 79 72 59 60 51 52 43 36 23 359 350 321 301 303 304 293 285 286 290 283 279 286 272 261 280 289 288 289 315 324 299 289 271 226 214 245 217 216 221 225 229 231 229 229 228 231 236 241 244 245 241 225 215 212 208 204 197 198 194 195 197
178 168 158 163 157 149 142 136 134 131 130 128 122 117 114 111 109 112 109 107 105 102 97 91 83 78 69 59 65 55 39 26 13 9 0 358 324 314 309 304 298 290 289 284 282 268 280 281 282 276 276 295 307 329 340 342 309 279 243 236 253 213 217 222 227 226 234 232 230 230 234 237 236 240 251 256 219 207 209 204 195 193 191 191 193
171 160 165 161 155 152 147 140 138 136 137 134 131 119 115 110 109 112 114 125 116 112 108 105 96 96 92 83 67 59 44 33 11 21 358 345 327 307 298 286 293 297 301 295 289 284 292 289 288 278 277 290 307 316 336 304 305 71 233 257 258 239 199 217 220 228 232 231 231 231 231 234 238 238 239 244 245 219 205 204 198 193 191 191 192
168 173 162 161 155 155 150 144 144 141 142 143 132 123 118 108 106 108 104 109 100 95 87 78 86 86 86 85 56 62 56 33 32 15 8 334 321 302 287 283 284 278 285 287 282 290 287 303 302 305 316 327 331 334 321 320 8 5 320 298 286 278 210 216 228 227 229 227 229 230 230 228 231 229 232 238 242 226 213 203 201 196 191 193 193
174 168 164 158 155 156 152 151 149 149 149 147 138 130 126 113 115 113 106 114 111 103 89 69 70 64 62 58 30 29 51 354 21 346 334 338 292 289 270 271 268 271 280 282 284 281 283 283 275 278 300 325 321 319 322 312 9 349 329 311 301 286 247 215 224 229 230 226 226 228 225 226 229 224 225 226 232 235 219 208 200 198 195 193 194
170 164 166 163 162 161 157 155 155 152 152 148 146 139 131 126 128 125 138 148 126 122 101 73 60 25 35 6 358 347 357 340 326 325 300 286 306 281 270 260 258 262 271 276 285 270 279 292 292 307 308 311 314 311 307 305 334 351 321 321 302 335 296 244 226 226 228 229 230 226 225 227 229 223 225 223 222 224 223 218 206 198 198 195 193
177 170 171 169 165 162 163 158 157 154 154 150 153 141 140 133 138 133 134 148 129 122 126 116 94 43 4 343 342 328 332 306 299 313 304 293 299 296 286 278 264 259 258 262 262 272 276 283 290 292 295 303 310 304 302 306 316 326 322 315 319 312 276 277 219 221 230 230 229 228 223 228 230 228 229 229 227 224 221 217 210 202 197 194 192
174 173 174 172 169 167 164 164 162 161 158 156 155 151 146 140 135 129 138 145 132 106 81 101 98 23 3 341 329 325 313 290 292 292 287 290 283 283 284 282 278 272 268 266 268 276 280 267 276 284 295 310 295 298 301 303 308 316 317 309 313 310 303 288 281 221 219 225 225 226 227 228 233 233 227 226 227 224 221 217 213 207 198 196 193
181 178 178 169 170 168 167 167 165 163 162 158 158 157 150 143 137 138 144 148 138 113 78 16 20 3 345 334 330 331 322 303 292 286 289 287 280 276 274 276 280 282 277 279 276 280 285 283 279 284 287 290 287 289 290 298 300 309 307 304 299 301 307 310 304 287 214 224 228 227 230 233 236 236 234 227 225 225 223 219 213 207 203 199 195
187 184 177 171 170 170 168 167 164 161 161 156 159 159 152 153 150 150 154 154 151 150 154 35 331 344 317 321 320 323 317 307 301 291 287 276 278 277 276 273 276 279 278 274 280 282 288 290 294 289 284 285 289 293 294 294 297 297 292 289 292 294 296 295 299 298 291 248 234 226 226 232 237 242 241 233 228 225 224 223 216 209 206 201 198
185 188 178 172 168 170 169 167 165 160 158 154 156 156 153 153 156 154 155 154 154 162 169 222 281 278 301 303 308 310 310 306 303 301 291 287 282 281 278 272 267 268 273 273 269 277 285 288 288 291 296 299 293 292 295 294 290 287 281 283 283 283 284 288 289 293 310 339 267 241 232 231 235 238 238 236 231 226 225 223 220 214 208 204 201
187 177 179 176 172 173 171 170 166 163 159 156 153 151 149 152 148 146 150 149 156 168 206 280 276 295 300 298 300 303 298 295 296 292 299 296 291 286 281 277 269 266 270 272 275 276 280 283 288 288 291 287 288 291 296 298 298 291 284 279 282 284 285 284 284 281 275 246 251 251 246 238 238 238 240 238 233 230 227 224 221 217 210 208 204
184 179 179 181 181 178 174 171 166 161 157 156 156 153 150 145 141 142 147 154 156 202 301 306 313 311 306 305 303 298 295 289 289 290 289 289 290 285 281 281 282 280 273 271 268 269 271 278 284 289 286 287 288 286 291 292 296 299 297 289 283 280 280 279 277 278 290 294 301 271 222 229 227 236 243 237 234 231 229 226 221 218 214 210 210
144 177 200 187 182 178 169 163 162 157 155 155 152 151 150 148 148 149 154 156 154 156 315 315 314 312 305 303 299 294 289 287 285 284 284 281 278 278 278 278 276 277 276 273 270 269 269 275 278 279 284 279 278 284 281 285 288 289 292 294 286 280 277 280 283 286 289 282 260 225 258 288 308 275 220 226 232 229 228 225 222 219 217 215 211
183 195 184 182 173 172 164 164 159 153 152 154 154 154 153 151 152 154 151 151 166 220 303 306 311 307 304 298 294 292 287 284 282 282 280 276 275 276 273 273 274 274 273 273 273 271 271 270 271 277 276 283 280 272 276 272 278 280 276 290 295 296 295 295 290 291 289 284 285 283 206 204 216 227 235 232 230 232 228 227 224 223 220 218 214
200 147 106 140 163 173 166 157 142 149 162 160 160 159 154 153 155 153 148 148 156 171 236 276 286 290 291 288 283 281 283 280 282 275 274 278 279 276 272 271 272 272 271 271 268 267 267 268 270 269 272 273 274 280 277 271 269 281 290 294 290 291 289 286 280 273 276 280 284 280 276 283 279 273 260 256 236 210 227 223 232 221 222 221 218
161 168 179 170 170 170 163 159 162 162 160 166 139 138 145 153 152 140 140 146 154 185 275 293 290 283 282 280 273 263 258 260 259 259 257 255 254 260 270 272 268 267 266 266 266 268 268 267 265 269 268 266 269 270 273 276 279 279 280 281 282 291 296 288 282 271 270 269 274 274 276 274 272 270 259 252 253 207 241 213 227 227 218 217 217
177 172 182 176 176 166 161 158 158 158 150 143 142 142 129 123 137 139 145 149 161 247 280 293 293 292 285 284 285 276 263 254 250 241 243 248 250 251 254 258 262 265 267 264 264 264 263 266 268 267 265 267 264 265 267 272 276 275 275 279 280 284 283 290 290 297 283 281 274 279 275 269 262 264 264 261 255 242 224 232 211 210 217 212 214
191 178 178 182 170 161 149 152 152 151 148 139 148 144 142 145 146 142 147 159 216 281 292 293 293 292 293 291 287 282 274 274 283 281 263 244 239 244 247 250 251 249 248 255 262 261 259 262 263 262 265 266 268 263 265 266 269 272 269 270 272 272 276 276 276 278 300 330 295 287 275 271 264 265 271 266 261 252 237 230 199 204 211 214 210
181 180 183 171 163 155 153 153 152 149 141 151 151 151 150 142 134 164 148 132 287 298 299 293 295 298 299 295 290 284 282 273 268 269 272 274 260 245 241 242 245 244 247 245 242 251 263 264 265 264 261 269 269 263 263 269 274 274 275 269 265 264 263 266 267 273 265 352 330 301 282 273 264 258 266 267 267 261 252 225 213 201 206 211 210
180 185 178 164 156 157 154 151 149 149 150 159 151 140 131 135 145 180 120 184 291 288 292 298 297 297 293 291 290 286 285 283 281 279 279 279 283 282 275 271 273 259 236 228 234 240 244 255 259 261 261 261 264 267 270 271 268 265 268 268 267 265 263 261 272 279 284 287 282 290 281 273 268 260 261 267 263 267 262 252 207 211 207 209 210
182 179 174 168 160 158 157 150 146 145 132 133 133 134 134 136 146 200 129 191 260 283 289 299 297 293 289 284 282 282 283 282 279 289 290 289 289 286 282 278 276 272 271 268 255 244 240 244 251 257 262 261 263 266 266 264 261 262 263 268 269 269 271 274 270 265 268 260 258 257 262 267 267 263 264 268 268 262 268 242 201 216 211 209 210
172 154 155 149 149 148 145 142 142 133 122 140 142 137 141 141 172 196 135 236 281 305 311 313 305 296 289 285 284 283 281 282 280 274 273 286 289 287 283 280 278 274 271 266 264 268 266 264 260 258 258 264 273 276 274 269 263 263 265 264 262 259 263 263 260 261 257 254 235 235 247 255 256 266 265 269 267 271 267 275 177 229 228 214 208
180 179 166 154 144 137 136 141 140 131 134 147 141 143 142 153 196 79 266 298 321 321 314 310 302 292 282 278 281 282 279 275 280 284 275 265 286 285 284 282 280 279 276 274 266 255 245 248 252 259 267 272 274 274 269 266 264 267 274 269 257 254 255 255 257 256 254 249 243 237 242 252 244 248 258 257 265 263 271 268 285 183 243 225 202
168 147 127 113 96 100 116 131 137 136 134 143 150 148 156 166 254 321 322 321 323 317 314 306 299 293 283 267 266 279 281 279 279 275 264 269 284 285 284 284 282 279 276 276 273 270 258 240 239 245 251 254 256 255 256 256 253 247 252 252 253 252 251 249 255 255 258 247 238 228 237 243 246 243 249 256 241 239 256 251 260 226 128 204 188
104 111 120 116 109 98 88 93 110 122 132 149 168 161 184 183 219 301 315 324 316 315 313 307 305 299 293 282 269 270 278 281 285 281 276 276 283 283 283 283 280 278 277 279 277 277 275 274 269 258 249 242 243 252 256 249 244 242 245 250 253 246 249 248 248 254 257 250 234 217 234 239 236 238 237 247 251 251 157 225 200 155 144 151 166